Location: Newark
(45.4422°N, 16.2769°E)
Time: 12:47:01
(UTC+00:00)

Tiros 1 despin weight - Pass Details

Date: 21 December 2019
Orbit: 594 x 642 km, 48.2° (Epoch: 26 January)

Event Time Altitude Azimuth Distance (km) Brightness Sun altitude
Rises 23:41:01 0° 231° (SW) 2,924 - -65.9°
Reaches altitude 10° 23:43:23 10° 227° (SW) 2,013 - -65.7°
Maximum altitude 23:47:54 53° 151° (SSE) 772 - -65.3°
Drops below altitude 10° 23:52:22 10° 75° (ENE) 1,993 - -64.9°
Sets 23:54:42 0° 70° (ENE) 2,893 - -64.7°
